{"data":{"norad_id":32953,"epoch":"2026-09-20T03:26:03.211008Z","epoch_age_seconds":45250,"freshness":"FRESH","line1":"1 32953U 08025A   26263.14309272  .00000034  00000+0  17043-3 0  9998","line2":"2 32953  82.5014 296.3825 0020713 104.0952 256.2431 12.43183099831491","mean_motion":12.43183099,"eccentricity":0.0020713,"inclination_deg":82.5014,"raan_deg":296.3825,"arg_perigee_deg":104.0952,"mean_anomaly_deg":256.2431,"bstar":0.00017043,"rev_number":83149,"period_min":115.83169053362,"perigee_km":1476.8346643308,"apogee_km":1509.4422099567,"semimajor_km":7871.2754371438,"source":"CELESTRAK","updated_at":"2026-09-20T09:00:45.230209Z"}}